TimeEST,TemperatureF,Dew PointF,Humidity,Sea Level PressureIn,VisibilityMPH,Wind Direction,Wind SpeedMPH,Gust SpeedMPH,PrecipitationIn,Events,Conditions,WindDirDegrees,DateUTC
12:51 AM,35.1,24.1,64,29.95,10.0,West,8.1,-,N/A,,Scattered Clouds,260,2013-02-13 05:51:00
1:51 AM,30.9,23.0,72,29.97,10.0,WSW,8.1,-,N/A,,Mostly Cloudy,240,2013-02-13 06:51:00
2:51 AM,30.0,24.1,79,29.96,10.0,WSW,8.1,-,N/A,,Mostly Cloudy,240,2013-02-13 07:51:00
3:51 AM,32.0,25.0,75,29.94,10.0,WNW,9.2,-,N/A,,Scattered Clouds,300,2013-02-13 08:51:00
4:51 AM,30.9,24.1,76,29.91,10.0,NNW,10.4,-,N/A,,Scattered Clouds,340,2013-02-13 09:51:00
5:51 AM,30.9,21.0,67,29.94,10.0,Calm,Calm,-,N/A,,Scattered Clouds,0,2013-02-13 10:51:00
6:51 AM,32.0,23.0,69,29.93,10.0,Calm,Calm,-,N/A,,Scattered Clouds,0,2013-02-13 11:51:00
7:51 AM,34.0,27.0,75,29.93,10.0,Calm,Calm,-,N/A,,Scattered Clouds,0,2013-02-13 12:51:00
8:51 AM,37.9,23.0,55,29.91,10.0,NNE,5.8,-,N/A,,Scattered Clouds,30,2013-02-13 13:51:00
9:51 AM,39.9,19.9,45,29.90,10.0,Calm,Calm,-,N/A,,Scattered Clouds,0,2013-02-13 14:51:00
10:51 AM,39.0,21.9,50,29.91,10.0,South,10.4,-,N/A,,Scattered Clouds,190,2013-02-13 15:51:00
11:51 AM,39.0,21.0,49,29.89,10.0,SSW,4.6,-,N/A,,Mostly Cloudy,210,2013-02-13 16:51:00
12:51 PM,39.9,23.0,51,29.85,10.0,SW,4.6,-,N/A,,Mostly Cloudy,220,2013-02-13 17:51:00
1:51 PM,42.1,23.0,47,29.78,10.0,Calm,Calm,-,N/A,,Mostly Cloudy,0,2013-02-13 18:51:00
2:51 PM,39.0,25.0,57,29.79,10.0,South,8.1,-,N/A,,Mostly Cloudy,180,2013-02-13 19:51:00
3:51 PM,39.0,25.0,57,29.77,10.0,SE,6.9,-,N/A,,Mostly Cloudy,140,2013-02-13 20:51:00
4:51 PM,37.9,25.0,60,29.74,10.0,NE,3.5,-,N/A,,Mostly Cloudy,50,2013-02-13 21:51:00
5:51 PM,37.9,25.0,60,29.71,10.0,ENE,5.8,-,N/A,,Mostly Cloudy,60,2013-02-13 22:51:00
6:51 PM,37.9,25.0,60,29.73,10.0,ESE,3.5,-,N/A,,Overcast,120,2013-02-13 23:51:00
7:51 PM,37.0,27.0,67,29.71,10.0,NE,4.6,-,0.00,Snow,Light Snow,40,2013-02-14 00:51:00
8:51 PM,36.0,28.0,73,29.72,9.0,SSE,3.5,-,0.00,Snow,Light Snow,160,2013-02-14 01:51:00
9:07 PM,35.6,28.4,75,29.72,8.0,Calm,Calm,-,0.00,Snow,Light Snow,0,2013-02-14 02:07:00
9:48 PM,35.6,28.4,75,29.71,9.0,Calm,Calm,-,0.00,Snow,Light Snow,0,2013-02-14 02:48:00
9:51 PM,36.0,28.9,76,29.71,9.0,Calm,Calm,-,0.00,Snow,Light Snow,0,2013-02-14 02:51:00
10:51 PM,36.0,28.9,76,29.71,10.0,NNW,3.5,-,0.00,,Overcast,330,2013-02-14 03:51:00
11:40 PM,35.6,28.4,75,29.71,7.0,North,12.7,-,0.00,Snow,Light Snow,350,2013-02-14 04:40:00
11:51 PM,35.1,30.0,82,29.71,7.0,North,15.0,-,0.00,Snow,Light Snow,350,2013-02-14 04:51:00